This is the latest recevied weather packets stored in our database for station/object HOTSPR-3. If no packets are shown the sender has not sent any weather packets the latest 10 day(s).
| Time | Temp. | Humidity | Pressure | Rain* | Wind** | Luminosity | Snow |
|---|---|---|---|---|---|---|---|
| 1777409556 | 24.44° C | 100% | 1008.3 hPa | 0 mm | - | - | - |
| 1777409256 | 24.44° C | 100% | 1008.1 hPa | 0 mm | - | - | - |
| 1777408956 | 25° C | 100% | 1008.1 hPa | 0 mm | - | - | - |
| 1777408656 | 25° C | 100% | 1008.2 hPa | 0 mm | - | - | - |
| 1777408356 | 25° C | 100% | 1008.5 hPa | 0 mm | - | - | - |
| 1777408055 | 25° C | 100% | 1008.6 hPa | 0 mm | - | - | - |
| 1777407755 | 25° C | 100% | 1008.5 hPa | 0 mm | - | - | - |
| 1777407455 | 25° C | 100% | 1008.4 hPa | 0 mm | - | - | - |
| 1777407155 | 25° C | 100% | 1008.5 hPa | 0 mm | - | - | - |
| 1777406855 | 25° C | 100% | 1008.8 hPa | 0 mm | - | - | - |
| 1777406555 | 25° C | 100% | 1009.2 hPa | 0 mm | - | - | - |
| 1777406254 | 25° C | 100% | 1009.3 hPa | 1.27 mm | - | - | - |
| 1777405954 | 25° C | 100% | 1009.4 hPa | 1.27 mm | - | - | - |
| 1777405654 | 24.44° C | 100% | 1009.5 hPa | 1.27 mm | - | - | - |
| 1777405353 | 24.44° C | 100% | 1009.5 hPa | 1.27 mm | - | - | - |
| 1777405054 | 23.89° C | 100% | 1009.6 hPa | 1.27 mm | - | - | - |
| 1777404753 | 23.33° C | 100% | 1009.6 hPa | 1.27 mm | - | - | - |
| 1777404453 | 22.78° C | 100% | 1009.6 hPa | 1.27 mm | - | - | - |
| 1777404153 | 22.78° C | 100% | 1009.4 hPa | 1.27 mm | - | - | - |
| 1777403853 | 22.78° C | 100% | 1009.2 hPa | 1.27 mm | - | - | - |
| 1777403553 | 22.78° C | 100% | 1009.1 hPa | 1.27 mm | - | - | - |
| 1777403253 | 22.22° C | 100% | 1008.9 hPa | 1.27 mm | - | - | - |
| 1777402952 | 22.22° C | 100% | 1008.9 hPa | 1.27 mm | - | - | - |
| 1777402652 | 22.22° C | 100% | 1009.6 hPa | 1.27 mm | - | - | - |
| 1777402352 | 22.22° C | 100% | 1010.7 hPa | 1.27 mm | - | - | - |
* Rain since midnight (hover to see other rain measurements)
** Current wind speed in m/s (hover to see current wind gust speed)